Showing default

COSMOS 2328, 23790

Orbit data source: Space-Track

COSMOS 2328, 23790 is a payload satellite owned by VKS (CIS) in LEO that was launched on Mon, 19 Feb 1996 UTC via a TSIKLON-3 launch vehicle from the Plesetsk Missile And Space Complex (PKMTR). Payload-class satellites include a variety of spacecraft equipped with specific instruments for various scientific and technological missions. These include communications satellites like Starlink; space stations such as the ISS; scientific satellites like the Hubble; Earth observation satellites from companies like Planet Labs, Umbra, and HawkEye 360; GPS; miniature CubeSats for education and research; and military/defense satellites.

Loading next visibility...
Identifier
23790, 1996-009D
Orbit
LEO
Country
Flag of CISCIS
Related business
Manufacturer
NPO PM
Mission
Non-operational Defense Communications
Bus & Motor
STRELA-3, Unknown motor
Mass
225 kg wet, 225 kg dry
Launch date (UTC)
1996-02-19 (30 years ago)
Launch vehicle
TSIKLON-3
Launch site
Plesetsk Missile And Space Complex (PKMTR)
Object type
Payload
Rocket body
Debris
Shape & HBR
Cyl + 1 Ant, 3.5 m
Radar Cross Section
1.583 m², Large (>1 m²)

Expand to show TLE details & history
Last TLE update: 9 hours ago

TLE from 9 hours ago
0 COSMOS 2328
1 23790U 96009D   25355.13625807  .00000032  00000-0  12112-3 0  9992
2 23790  82.5780  73.2680 0008804 102.0478 258.1601 12.62598274375005
Epoch: 2025-12-21T03:16Z
TLE epoch observation values (Epoch: 2025-12-21T03:16:12.697Z)
Latitude
0.00006°
Longitude
-65.73794°
Altitude
1,416.382 km
Speed
7.152 km/s
True Right ascension
04h 53m 04s
True Declination
0° 00' 00"
Sunlit
Object was in full shadow at epoch
Visualization orbit readout
Latitude
Unknown
Longitude
Unknown
Altitude
Unknown
Speed
Unknown
Apparent Right ascension
Unknown
Apparent Declination
Unknown
Sunlit
N/A
Visualization observer readout
Local Sidereal Time
11:14:42
Azimuth
Unknown
Elevation
Unknown
Doppler factor
Unknown
Orbital elements
Apogee altitude
1,416.415 km
Perigee altitude
1,402.702 km
Semi-major axis
7,787.696 km
Eccentricity
0.00088
Inclination
82.578°
RAAN
73.268°
Arg. of periapsis
102.0478°
True anomaly
258.06138°
Mean anomaly
258.1601°
Eccentric anomaly
258.11074°
Mean motion
3.15813 °/min
Orbital period
113.99 mins
BSTAR
0.00012112
Loading maneuver chart data...
Computing Atmospheric mass density...
Loading historical data...
Loading historical data...
Loading historical data...
Loading historical data...
Loading historical data...
Loading historical data...
Loading historical data...

Documentation

Showing up to 5 results
|